Location: Marsån
(66.4167°N, 22.2833°E)
Time: 09:54:50
(UTC+00:00)

Cosmos 2322 - Pass Details

Date: 24 February 2024
Orbit: 839 x 855 km, 71.0° (Epoch: 15 April)

Event Time Altitude Azimuth Distance (km) Brightness Sun altitude
Rises 18:02:30 0° 304° (NW) 3,420 8.2 -16.4°
Reaches altitude 10° 18:04:57 10° 305° (NW) 2,485 7.3 -16.7°
Maximum altitude 18:10:40 88° 32° (NNE) 861 3.7 -17.2°
Enters shadow 18:13:53 28° 126° (SE) 1,567 4.6 -17.5°
